Home   Weather   Konstanz   Past weeks

Flag for Germany Past Weather in Konstanz, Baden-Württemberg, Germany — Yesterday and Last 2 Weeks

Now
72 °F

Sunny.


Feels Like: 76 °F
Forecast: 49 / 71 °F
Wind: 7 mph from Southwest

Location: Friedrichshafen Airport

Current Time: Sep 29, 2016 at 3:38:32 PM

Latest Report: Sep 29, 2016 at 2:50 PM


Visibility: 10 mi

Pressure: 30.21 "Hg

Humidity: 57%

Dew Point: 55 °F

Location of KonstanzLocation

Past Weather in Konstanz — Graph

°F

Konstanz Temperature Yesterday

Maximum temperature yesterday: 68 °F (at 2:50 PM)
Minimum temperature yesterday: 48 °F (at 4:20 AM)
Average temperature yesterday: 57 °F

High & Low Weather Summary for the Past Weeks

 TemperatureHumidityPressure
High82 °F (Sep 14, 4:50 PM)100% (Sep 16, 12:20 AM)30.48 "Hg (Sep 16, 12:20 AM)
Low45 °F (Sep 22, 2:20 AM)53% (Sep 24, 4:20 PM)29.80 "Hg (Sep 15, 5:50 AM)
Average58 °F85%30.13 "Hg
* Reported Sep 14 1:20 PM — Sep 29 1:50 PM, Konstanz, Weather by CustomWeather, © 2016

Note: Actual official high and low records may vary slightly from our data, if they occured in-between our weather recording intervals... More about our weather records

Advertising

Konstanz Weather History for the Previous 24 Hours

Scroll right to see more
 ConditionsComfort  
Time TempWeatherWind HumidityBarometerVisibility
1:50 PM
Thu, Sep 29
68 °FPassing clouds.6 mph69%30.24 "HgN/A
1:20 PM66 °FSunny.6 mph73%30.24 "Hg10 mi
12:50 PM66 °FSunny.6 mph68%30.27 "Hg10 mi
12:20 PM66 °FSunny.6 mph64%30.27 "Hg10 mi
11:50 AM66 °FSunny.2 mph73%30.27 "Hg10 mi
11:20 AM64 °FSunny.1 mph73%30.30 "Hg10 mi
10:50 AM61 °FSunny.1 mph83%30.30 "Hg10 mi
10:20 AM57 °FPassing clouds.2 mph94%30.33 "HgN/A
9:50 AM55 °FFog.2 mph100%30.33 "Hg1 mi
9:20 AM54 °FFog.2 mph100%30.33 "Hg0 mi
8:50 AM50 °FPartly sunny.1 mph100%30.33 "HgN/A
8:20 AM50 °FScattered clouds.1 mph100%30.33 "Hg5 mi
7:50 AM48 °FPassing clouds.1 mph94%30.33 "HgN/A
7:20 AM46 °FLight fog.2 mph100%30.33 "HgN/A
6:50 AM46 °FClear.2 mph100%30.33 "Hg10 mi
6:20 AM46 °FClear.2 mph100%30.33 "Hg10 mi
5:50 AM48 °FFog.1 mph94%30.33 "Hg1 mi
5:20 AM46 °FFog.2 mph100%30.33 "Hg3 mi
4:50 AM46 °FCool.2 mph100%30.36 "Hg1 mi
4:20 AM48 °FCool.1 mph100%30.36 "Hg1 mi
4:02 AM48 °FCool.3 mph100%30.36 "Hg2 mi
3:50 AM48 °FCool.3 mph100%30.36 "Hg2 mi
3:20 AM48 °FCool.1 mph100%30.36 "Hg1 mi
2:55 AM50 °FCool.No wind100%30.36 "Hg0 mi
2:20 AM52 °FFog.2 mph94%30.39 "Hg2 mi
1:50 AM50 °FCool.1 mph100%30.39 "Hg0 mi
1:20 AM52 °FCool.No wind100%30.39 "Hg1 mi
12:50 AM50 °FCool.2 mph100%30.39 "Hg2 mi
12:20 AM54 °FFog.1 mph100%30.42 "Hg2 mi
11:50 PM
Wed, Sep 28
54 °FCool.No wind100%30.39 "Hg1 mi
11:20 PM54 °FCool.3 mph100%30.42 "Hg0 mi
10:50 PM54 °FFog.No wind100%30.42 "Hg2 mi
10:20 PM55 °FFog.No wind94%30.42 "Hg2 mi
9:50 PM55 °FClear.1 mph100%30.42 "Hg5 mi
9:20 PM57 °FClear.No wind100%30.42 "Hg5 mi
8:50 PM57 °FClear.1 mph100%30.39 "Hg4 mi
8:20 PM59 °FClear.No wind94%30.39 "Hg10 mi
7:50 PM61 °FClear.2 mph88%30.39 "Hg10 mi
7:20 PM61 °FClear.1 mph94%30.39 "Hg10 mi
6:50 PM63 °FSunny.2 mph88%30.39 "Hg10 mi
6:20 PM66 °FSunny.2 mph73%30.39 "Hg10 mi
5:50 PM66 °FSunny.3 mph73%30.39 "Hg10 mi
5:20 PM66 °FSunny.3 mph73%30.39 "Hg10 mi
4:50 PM68 °FSunny.6 mph69%30.39 "Hg10 mi
4:20 PM68 °FPassing clouds.6 mph69%30.39 "HgN/A
3:50 PM68 °FSunny.6 mph73%30.39 "Hg10 mi
3:20 PM68 °FPassing clouds.7 mph69%30.39 "HgN/A
Weather by CustomWeather, © 2016

See weather overviewHow to use our weather pages